Wetbulb
32.50 33.17 31.79 30.03 29.65 31.39 30.03 31.19 28.83 25.57 24.04 25.38 26.80 27.59 27.91 28.73 28.47 27.45 27.48 28.06 28.15 27.93 28.94 29.70 30.23 32.32 32.29 32.94 34.05 35.48 35.60 36.45 37.84 38.73 37.78 37.64 37.95 38.97 39.17 38.13 37.52 37.06 37.75 37.74
31.14 33.68 31.81 27.89 29.70 31.29 29.93 28.69 27.22 26.53 23.91 28.82 28.83 28.91 27.90 26.91 26.59 25.87 25.98 26.78 26.83 27.06 27.37 28.05 29.26 30.88 32.57 32.67 33.03 34.22 34.00 34.44 36.58 38.29 39.70 38.02 37.52 37.58 37.71 37.96 37.30 37.72 36.08 35.54
30.01 31.79 31.35 25.70 27.43 29.59 29.44 30.98 30.50 26.88 26.93 28.97 26.90 26.14 25.45 25.87 25.93 25.19 25.45 25.98 25.95 25.82 26.27 27.23 28.73 30.64 30.95 33.19 34.09 33.49 32.50 32.76 33.84 36.07 36.81 38.01 38.73 37.91 37.40 35.58 36.47 35.52 35.27 35.36
31.39 31.85 23.13 28.39 33.56 31.64 29.24 29.69 30.86 28.91 28.60 29.28 27.31 26.97 26.74 26.71 25.76 25.32 25.50 25.77 26.07 26.17 25.99 27.80 29.60 30.71 31.66 32.17 32.95 31.60 30.51 30.23 31.50 33.09 33.93 35.58 35.84 35.73 36.26 36.18 35.52 34.68 34.47 33.70
29.50 28.50 27.98 28.98 30.93 30.33 29.58 26.46 30.71 30.30 30.00 29.24 28.93 30.46 26.92 26.55 26.38 25.55 26.63 27.10 27.45 28.32 27.33 27.84 28.92 30.55 30.06 29.75 29.97 29.69 28.68 28.89 30.22 31.15 31.28 31.94 32.00 32.36 34.17 34.63 33.96 34.36 33.54 32.81
31.31 25.77 23.10 28.62 31.10 33.64 34.29 26.33 30.73 31.45 31.27 31.36 30.88 28.35 26.26 25.87 26.21 25.78 27.53 28.56 28.45 29.20 29.36 28.11 28.97 30.57 29.96 28.81 28.73 29.04 29.65 29.92 30.26 30.54 30.83 30.46 31.53 32.11 32.94 33.77 33.69 33.81 33.44 32.64
30.47 27.84 27.17 30.16 32.08 35.12 26.06 26.12 31.34 31.36 32.16 32.56 29.28 27.95 25.93 25.78 25.18 25.96 27.22 27.89 29.76 29.38 28.15 28.69 29.98 30.13 28.24 29.27 29.01 29.84 30.56 31.15 30.57 31.17 30.68 30.64 31.41 32.30 32.02 32.58 32.68 31.78 31.87 32.23
30.21 27.15 24.07 31.75 32.75 29.85 31.44 33.84 33.55 32.74 32.30 30.00 28.82 27.38 26.08 24.55 25.00 25.97 26.18 27.68 28.83 28.59 27.85 28.87 29.08 29.19 27.85 27.39 31.21 31.80 30.72 30.67 30.83 30.83 30.02 30.01 29.42 30.73 31.57 31.94 31.94 31.84 31.64 32.02
28.48 27.71 31.61 32.88 33.26 36.05 36.52 33.83 33.06 32.44 32.60 31.52 29.12 27.25 26.50 26.09 26.10 26.29 27.38 27.86 28.29 28.03 27.70 27.87 28.13 28.30 27.03 28.42 31.27 31.49 30.93 30.05 30.48 30.42 31.28 31.97 29.54 29.06 28.86 29.89 29.61 29.34 29.20 28.86
29.79 28.85 30.44 31.95 33.29 34.77 35.46 34.11 33.78 33.01 31.83 31.53 29.00 28.41 26.96 27.00 26.54 26.53 26.84 26.40 27.32 26.92 26.00 25.75 27.32 27.01 27.32 28.68 30.41 30.27 29.57 29.42 30.36 29.97 29.94 30.60 30.18 28.01 25.86 25.85 25.63 25.58 25.85 25.96
28.14 29.75 31.19 31.50 33.18 33.42 32.79 32.95 31.58 31.58 31.03 29.87 29.16 27.80 27.13 25.88 25.22 25.68 25.61 25.89 25.79 25.08 24.67 24.70 25.87 25.79 26.71 27.94 29.04 28.45 28.62 28.55 28.33 29.14 29.03 29.15 29.31 27.06 25.45 24.84 23.94 22.87 23.57 24.44
32.83 33.14 33.15 32.05 33.20 33.26 31.15 29.78 30.05 28.97 28.23 28.96 28.72 27.36 26.92 25.50 25.28 25.05 24.34 24.80 24.35 23.91 23.86 23.94 24.65 24.34 25.10 26.94 27.11 26.89 26.13 26.79 26.50 27.64 27.58 27.50 27.48 27.79 24.44 23.54 22.89 22.54 22.31 22.98
34.76 36.53 35.02 33.83 33.53 33.85 31.12 30.44 30.30 29.22 28.53 26.70 27.17 27.17 26.08 24.74 24.38 21.55 23.98 23.50 22.78 22.15 22.38 22.90 22.83 21.95 23.21 24.80 25.48 24.34 24.58 24.12 25.86 25.70 25.89 25.44 25.39 24.96 23.98 25.93 24.75 23.06 21.06 20.54
36.93 34.38 30.45 31.50 29.89 32.07 31.05 30.02 29.54 28.80 28.30 27.33 26.59 26.72 25.78 24.30 23.74 23.38 22.29 22.64 22.31 21.92 21.21 21.51 20.90 18.64 20.29 22.17 22.90 22.20 23.72 22.36 24.66 25.07 25.00 24.87 24.57 24.23 23.96 23.05 22.20 22.72 22.69 20.61
35.78 36.22 35.17 33.97 31.79 30.52 30.31 28.99 27.24 26.08 25.84 25.24 26.28 25.28 24.83 23.28 21.90 21.05 21.89 21.54 21.24 20.73 19.36 18.76 17.83 17.21 19.29 19.81 20.79 21.16 22.69 22.47 23.14 24.58 24.45 23.67 24.09 23.86 23.25 22.58 21.80 21.36 21.56 20.26
35.18 34.58 32.96 31.30 29.93 28.80 28.74 28.13 26.83 25.39 25.32 24.61 23.97 23.52 23.47 23.19 21.92 21.09 20.50 19.64 18.46 15.87 15.52 12.89 15.65 16.31 17.89 18.78 19.78 21.59 22.09 19.87 20.39 23.07 23.07 22.72 22.86 22.18 21.72 21.29 20.91 20.26 19.24 16.92
32.36 30.68 31.57 30.13 29.39 29.07 28.87 29.34 28.66 26.82 25.50 24.62 23.44 22.97 22.70 21.38 19.90 18.61 18.01 17.59 15.10 14.07 15.05 14.60 13.99 15.33 15.50 17.00 18.53 21.00 21.59 21.51 18.98 21.96 21.69 21.29 21.23 20.82 20.39 20.25 19.51 18.99 18.76 16.31
37.33 35.98 34.85 33.38 30.96 29.71 28.87 28.15 27.56 26.12 24.78 24.55 22.65 20.74 18.55 17.80 18.89 16.53 14.99 15.08 14.26 13.65 14.80 13.04 13.40 14.93 15.31 16.36 17.30 19.98 20.23 20.04 20.24 19.63 20.33 19.77 18.69 19.74 19.42 19.23 18.69 17.93 17.89 17.76
36.32 34.71 33.93 32.88 32.25 30.91 29.36 27.81 26.63 25.51 22.96 19.53 17.50 17.68 17.15 16.30 17.01 16.18 14.64 12.89 12.68 15.07 16.15 14.48 14.26 15.46 16.88 15.59 16.57 19.73 19.13 18.51 18.74 18.63 18.42 17.25 18.79 18.46 18.04 17.57 17.07 17.05 16.69 16.10
34.32 34.09 33.08 31.77 31.55 29.75 27.10 26.15 23.03 21.38 19.32 17.02 14.30 13.84 15.24 13.40 13.17 12.51 12.68 14.94 18.43 19.20 16.62 15.92 14.94 16.91 16.16 16.24 14.82 19.15 18.09 17.84 17.00 17.13 16.85 16.23 16.68 16.42 16.79 15.57 15.50 15.70 15.51 15.38
31.47 30.86 29.39 27.36 25.64 25.36 23.89 21.70 19.61 15.83 14.71 13.79 16.42 15.33 16.17 17.21 13.49 12.03 14.18 18.48 19.85 16.19 16.42 15.33 16.99 18.89 19.22 16.01 17.74 18.53 17.77 17.09 16.36 15.99 15.61 15.41 15.31 15.43 15.21 15.12 15.00 14.60 14.61 14.22
28.40 25.94 23.99 21.72 21.26 20.32 19.77 20.23 19.08 14.58 12.97 12.70 11.71 13.81 13.99 15.68 13.66 13.78 14.93 18.18 22.48 14.97 18.44 19.75 19.83 15.91 16.75 12.19 18.49 18.05 17.20 16.56 16.19 16.05 15.30 14.97 14.57 13.98 13.94 14.02 13.53 13.78 13.66 13.67
27.14 24.79 22.42 20.51 19.85 20.84 18.64 18.15 15.97 15.50 13.83 12.73 12.25 14.48 17.33 22.00 22.64 20.64 20.39 21.61 20.56 19.48 19.02 20.37 17.70 14.34 13.31 16.11 18.55 18.00 17.19 16.22 16.00 15.60 15.19 14.87 14.39 13.90 13.63 13.37 13.15 13.19 13.14 12.73
24.93 23.80 22.59 22.01 18.71 17.39 16.97 16.66 16.89 16.60 15.31 15.88 15.95 16.05 18.98 20.47 22.01 22.70 23.32 20.90 18.11 17.78 19.43 20.85 18.48 15.17 12.34 18.64 18.39 17.93 17.41 17.14 16.45 16.31 15.94 13.45 14.97 14.27 13.83 13.32 12.70 13.42 12.91 12.51
23.34 21.89 19.85 18.19 19.89 21.42 21.57 18.51 17.96 17.72 16.87 19.04 20.01 19.96 17.57 21.30 21.85 24.34 23.86 22.71 19.94 18.45 20.74 19.78 15.99 14.34 17.04 19.28 18.86 17.93 17.49 17.29 16.91 16.28 15.67 15.14 14.58 14.25 13.92 13.72 13.11 12.88 12.67 12.28
23.06 24.02 23.48 22.90 25.53 24.99 23.83 20.84 21.90 21.91 21.66 22.11 23.59 24.84 25.20 24.84 23.83 22.30 22.14 20.58 20.37 19.81 20.61 21.75 20.83 19.94 19.65 19.16 18.49 17.77 17.36 16.67 16.40 15.83 15.68 15.06 14.64 14.43 13.96 13.48 13.18 12.80 12.75 12.75
24.81 23.76 23.64 22.95 23.63 24.00 23.79 23.02 23.34 23.03 22.82 24.91 24.59 25.66 24.76 24.10 22.85 20.42 19.84 21.66 21.60 21.26 21.34 21.17 20.81 19.52 19.37 19.24 18.19 17.58 16.86 16.44 15.64 15.31 15.05 14.69 14.30 14.13 13.77 13.65 13.61 13.38 12.80 12.15
MSLP
1016.65 1017.14 1017.50 1017.55 1016.71 1015.60 1015.66 1016.22 1017.01 1019.51 1021.30 1023.17 1024.25 1024.85 1025.32 1025.47 1025.14 1024.70 1024.20 1023.80 1023.36 1022.60 1021.86 1021.09 1020.11 1019.43 1018.90 1018.67 1017.68 1016.52 1016.87 1016.37 1015.91 1015.70 1015.38 1014.74 1014.02 1013.68 1013.26 1012.84 1012.66 1012.38 1011.67 1011.26
1016.62 1017.32 1017.86 1018.38 1018.24 1017.84 1017.85 1018.24 1019.11 1020.54 1022.32 1024.00 1025.00 1025.60 1025.90 1026.07 1025.94 1025.63 1025.35 1025.02 1024.82 1024.41 1023.70 1022.96 1022.34 1021.38 1020.06 1019.78 1019.20 1019.02 1018.35 1017.77 1017.25 1016.29 1015.51 1015.49 1015.23 1014.90 1014.44 1013.89 1013.42 1012.88 1012.78 1012.70
1015.73 1017.10 1017.71 1018.70 1019.55 1019.36 1019.38 1019.44 1019.64 1020.62 1022.67 1024.22 1025.24 1026.00 1026.56 1026.68 1026.72 1026.53 1026.25 1026.03 1025.76 1025.54 1025.25 1024.89 1024.10 1023.34 1022.59 1021.69 1020.87 1020.16 1019.79 1019.08 1018.39 1017.70 1016.97 1016.22 1015.77 1015.38 1015.00 1014.86 1014.71 1014.46 1014.03 1013.37
1015.28 1016.59 1017.54 1019.38 1020.22 1020.43 1020.34 1020.70 1021.08 1021.97 1023.16 1024.24 1025.49 1026.50 1027.08 1027.48 1027.45 1027.33 1027.08 1026.78 1026.58 1026.44 1026.18 1025.60 1024.81 1024.04 1023.41 1022.60 1021.99 1021.48 1020.83 1020.51 1020.19 1019.36 1018.46 1017.56 1017.11 1016.51 1015.98 1015.78 1015.51 1015.25 1015.04 1014.76
1014.99 1015.76 1018.03 1019.19 1019.79 1020.25 1020.24 1021.36 1021.74 1022.08 1023.16 1024.32 1025.50 1025.64 1026.90 1027.98 1028.21 1028.11 1027.71 1027.43 1027.22 1026.93 1026.91 1026.36 1025.50 1024.71 1024.26 1023.60 1023.02 1022.39 1022.11 1021.37 1020.64 1020.10 1019.58 1018.94 1018.34 1017.90 1017.34 1016.85 1016.59 1016.30 1016.21 1015.74
1015.23 1015.72 1016.96 1018.38 1019.70 1020.40 1020.40 1020.94 1021.92 1022.18 1022.66 1023.60 1024.82 1025.22 1027.17 1028.40 1028.67 1028.59 1028.10 1027.65 1027.38 1027.16 1026.90 1026.65 1026.01 1025.32 1024.58 1024.14 1023.73 1023.26 1022.86 1022.58 1022.24 1021.73 1021.24 1020.72 1020.15 1019.54 1018.90 1018.35 1018.04 1017.62 1017.37 1017.10
1015.43 1016.22 1017.82 1019.32 1019.97 1020.35 1020.72 1021.86 1022.01 1022.38 1022.65 1023.26 1024.63 1026.52 1028.07 1028.83 1029.02 1028.86 1028.29 1027.88 1027.54 1027.37 1027.18 1026.79 1026.25 1025.82 1025.38 1024.72 1024.38 1024.44 1023.83 1023.44 1023.04 1022.48 1022.24 1021.92 1021.41 1020.77 1020.24 1019.65 1019.13 1018.72 1018.25 1017.98
1016.51 1017.35 1018.64 1020.02 1020.32 1020.24 1020.94 1021.50 1022.12 1022.70 1023.51 1024.47 1025.77 1027.06 1028.11 1028.92 1028.90 1028.74 1028.47 1028.07 1027.90 1027.53 1027.44 1027.22 1026.89 1026.26 1025.99 1025.40 1024.83 1024.43 1024.24 1023.84 1023.45 1023.25 1022.86 1022.69 1022.21 1021.68 1021.07 1020.47 1019.88 1019.51 1019.09 1018.50
1018.27 1018.84 1019.99 1020.59 1020.62 1020.78 1021.06 1021.75 1022.53 1023.19 1024.14 1025.07 1026.14 1027.23 1027.98 1028.35 1028.56 1028.59 1028.36 1028.30 1028.23 1027.97 1027.77 1027.49 1027.38 1027.16 1026.43 1026.11 1025.24 1024.76 1024.24 1023.88 1023.62 1023.42 1023.06 1022.93 1022.69 1022.40 1022.08 1021.51 1020.93 1020.62 1020.14 1019.58
1018.83 1020.27 1020.71 1021.30 1021.66 1021.77 1022.05 1022.60 1023.30 1023.98 1024.66 1025.45 1026.24 1027.14 1027.86 1028.22 1028.54 1028.68 1028.75 1028.73 1028.71 1028.52 1028.34 1028.27 1028.09 1027.94 1027.62 1027.01 1026.34 1025.72 1024.82 1024.77 1024.47 1024.07 1023.78 1023.54 1023.42 1023.61 1023.50 1023.19 1022.51 1022.20 1021.71 1021.09
1019.61 1020.71 1021.35 1021.81 1022.19 1022.62 1023.06 1023.57 1024.22 1024.93 1025.49 1026.08 1026.65 1027.34 1027.92 1028.47 1028.97 1029.24 1029.36 1029.48 1029.44 1029.30 1029.24 1029.25 1029.12 1028.87 1028.55 1027.98 1027.24 1026.24 1025.81 1025.65 1025.40 1024.96 1024.58 1024.19 1024.18 1024.84 1024.79 1025.16 1024.90 1024.34 1023.82 1023.02
1018.43 1019.76 1020.47 1021.52 1022.54 1023.21 1023.70 1024.25 1024.90 1025.52 1026.26 1026.86 1027.31 1027.85 1028.45 1028.99 1029.46 1029.71 1029.95 1030.10 1030.05 1030.12 1030.04 1029.96 1029.76 1029.69 1029.50 1028.93 1028.34 1027.54 1026.99 1026.72 1026.57 1025.97 1025.64 1025.29 1025.02 1024.82 1025.41 1025.50 1025.53 1025.58 1025.24 1024.52
1018.94 1019.90 1020.72 1021.90 1022.89 1023.52 1024.20 1024.92 1025.57 1026.20 1026.85 1027.38 1028.05 1028.47 1028.89 1029.36 1029.90 1030.64 1030.51 1030.76 1030.91 1030.99 1030.96 1030.81 1030.71 1030.72 1030.60 1030.07 1029.38 1029.07 1028.50 1028.28 1027.52 1027.00 1026.54 1026.27 1025.98 1025.72 1025.39 1025.14 1025.25 1025.54 1025.60 1025.21
1019.64 1020.55 1021.64 1022.33 1023.07 1024.05 1024.81 1025.63 1026.37 1026.94 1027.51 1028.02 1028.56 1029.09 1029.49 1029.90 1030.47 1030.79 1031.13 1031.47 1031.70 1031.73 1031.77 1031.74 1031.74 1032.04 1031.95 1031.34 1030.67 1030.31 1029.62 1029.29 1028.61 1028.08 1027.72 1027.30 1026.87 1026.52 1026.19 1025.82 1025.41 1025.21 1025.31 1025.49
1019.77 1020.19 1020.73 1021.92 1023.16 1024.21 1025.20 1025.96 1026.57 1027.23 1028.00 1028.54 1029.00 1029.43 1029.85 1030.31 1030.96 1031.58 1031.93 1032.14 1032.20 1032.40 1032.64 1032.78 1032.76 1032.80 1032.59 1032.10 1031.30 1030.70 1030.06 1029.74 1029.32 1028.67 1028.32 1028.01 1027.52 1027.09 1026.80 1026.50 1026.26 1026.01 1025.83 1025.70
1019.78 1020.46 1021.35 1022.28 1023.29 1024.22 1025.00 1025.83 1026.44 1027.28 1028.10 1028.80 1029.27 1029.79 1030.30 1030.89 1031.65 1032.20 1032.62 1032.94 1032.88 1033.25 1033.68 1033.96 1033.62 1033.59 1033.24 1032.63 1031.83 1030.96 1030.49 1030.39 1030.00 1029.18 1028.75 1028.34 1027.91 1027.57 1027.28 1027.03 1026.73 1026.53 1026.47 1026.78
1019.55 1020.45 1021.21 1022.10 1023.15 1024.14 1024.84 1025.59 1026.34 1027.17 1028.08 1028.83 1029.54 1030.33 1030.90 1031.56 1032.18 1032.71 1033.28 1033.70 1033.97 1034.08 1034.25 1034.30 1034.26 1034.18 1033.91 1033.23 1032.45 1031.50 1030.96 1030.53 1030.36 1029.57 1029.14 1028.90 1028.51 1028.08 1027.88 1027.53 1027.30 1027.09 1026.94 1027.48
1019.45 1020.20 1021.11 1021.91 1022.86 1023.89 1024.95 1025.91 1026.74 1027.61 1028.40 1029.27 1030.24 1031.06 1031.76 1032.05 1032.42 1033.21 1033.83 1034.12 1034.18 1034.40 1034.49 1034.64 1034.65 1034.27 1033.94 1033.50 1032.88 1031.96 1031.40 1030.94 1030.42 1029.99 1029.62 1029.34 1029.27 1028.72 1028.40 1028.03 1027.70 1027.50 1027.32 1027.20
1020.07 1020.76 1021.61 1022.38 1023.18 1024.12 1025.16 1026.20 1027.17 1028.08 1029.24 1030.30 1031.14 1031.57 1031.98 1032.62 1033.04 1033.56 1033.94 1034.12 1034.13 1033.93 1034.10 1034.38 1034.35 1034.00 1033.58 1033.58 1033.09 1031.96 1031.68 1031.30 1030.82 1030.38 1030.21 1029.92 1029.37 1029.12 1028.81 1028.58 1028.22 1027.96 1027.80 1027.56
1020.81 1021.54 1022.32 1023.12 1023.85 1024.76 1025.78 1026.83 1028.03 1029.01 1029.96 1030.72 1031.48 1031.92 1032.29 1032.83 1033.24 1033.57 1033.88 1033.74 1033.47 1033.60 1034.01 1033.99 1034.02 1033.56 1033.48 1033.31 1033.39 1032.05 1031.85 1031.56 1031.18 1030.82 1030.58 1030.40 1029.95 1029.60 1029.22 1028.90 1028.74 1028.35 1028.09 1027.84
1021.69 1022.48 1023.31 1024.14 1025.05 1025.89 1026.74 1027.70 1028.46 1029.44 1030.41 1031.12 1031.31 1031.64 1031.90 1032.37 1033.02 1033.45 1033.57 1032.94 1032.89 1033.62 1033.69 1033.80 1033.60 1033.02 1032.84 1033.22 1032.53 1032.10 1031.94 1031.72 1031.38 1031.08 1030.77 1030.52 1030.25 1029.88 1029.54 1029.23 1028.90 1028.61 1028.33 1028.16
1022.68 1023.48 1024.32 1025.10 1025.84 1026.74 1027.58 1028.20 1028.88 1029.83 1030.64 1031.14 1031.48 1031.77 1032.00 1032.23 1032.68 1032.99 1033.08 1032.77 1032.43 1033.39 1032.99 1032.71 1032.52 1033.05 1033.04 1033.68 1032.20 1032.04 1031.87 1031.66 1031.43 1031.15 1030.87 1030.68 1030.42 1030.07 1029.72 1029.38 1029.03 1028.70 1028.49 1028.27
1023.41 1024.16 1024.94 1025.68 1026.30 1027.05 1028.03 1028.64 1029.30 1029.92 1030.50 1030.94 1031.34 1031.58 1031.62 1031.36 1031.48 1031.59 1031.48 1031.68 1032.27 1032.52 1032.59 1032.14 1032.41 1033.13 1033.41 1033.10 1032.04 1031.81 1031.61 1031.42 1031.14 1030.94 1030.74 1030.56 1030.34 1030.03 1029.68 1029.35 1029.08 1028.79 1028.45 1028.26
1024.02 1024.72 1025.45 1026.22 1027.01 1027.59 1028.11 1028.84 1029.35 1029.82 1030.25 1030.62 1031.02 1031.42 1031.36 1031.31 1031.20 1031.27 1031.28 1031.49 1031.81 1032.09 1032.11 1031.69 1032.16 1032.70 1033.11 1032.05 1031.62 1031.40 1031.23 1030.92 1030.68 1030.44 1030.24 1030.22 1029.90 1029.62 1029.35 1029.11 1028.88 1028.60 1028.35 1028.12
1024.38 1025.09 1025.80 1026.32 1026.59 1026.95 1027.49 1028.41 1028.98 1029.43 1029.83 1030.05 1030.31 1030.72 1031.18 1031.02 1030.99 1030.56 1030.85 1031.02 1031.37 1031.65 1031.38 1031.28 1032.00 1032.28 1032.06 1031.25 1031.01 1030.88 1030.69 1030.40 1030.18 1030.00 1029.76 1029.52 1029.29 1029.07 1028.86 1028.64 1028.45 1028.28 1028.07 1027.90
1024.45 1024.78 1025.29 1025.82 1025.79 1026.24 1026.86 1027.72 1027.82 1028.38 1028.87 1029.22 1029.49 1029.76 1030.02 1030.30 1030.49 1030.72 1030.72 1030.90 1031.00 1030.99 1030.96 1030.61 1030.69 1030.90 1030.84 1030.56 1030.49 1030.37 1030.20 1029.90 1029.64 1029.37 1029.20 1029.00 1028.73 1028.49 1028.30 1028.14 1027.94 1027.78 1027.60 1027.41
1024.39 1024.78 1025.20 1025.65 1025.98 1026.24 1026.63 1027.06 1027.32 1027.73 1028.38 1028.52 1028.66 1029.07 1029.60 1030.00 1030.22 1030.47 1030.56 1030.44 1030.42 1030.43 1030.38 1030.23 1030.26 1030.34 1030.27 1030.10 1030.04 1029.88 1029.75 1029.45 1029.24 1029.04 1028.86 1028.53 1028.24 1028.03 1027.84 1027.65 1027.45 1027.30 1027.18 1027.04
Wind_Speed
12 9 12 10 12 10 5 5 3 7 6 7 8 9 11 11 13 15 17 19 19 20 19 19 20 18 19 16 17 17 16 17 17 14 15 15 15 15 14 16 15 15 15 16
8 7 5 11 14 8 13 14 13 12 8 5 6 7 9 11 12 14 15 16 17 18 20 21 20 18 19 19 17 16 17 17 17 17 18 17 15 16 17 17 16 17 16 16
5 5 5 2 8 8 11 11 4 4 7 6 6 8 10 11 11 13 14 16 17 17 16 15 15 15 16 17 17 17 17 18 18 17 18 18 18 18 18 16 17 17 19 18
2 7 5 7 7 10 12 9 9 10 9 7 8 9 10 10 10 11 12 14 14 13 14 15 15 15 15 16 17 18 18 18 17 17 17 18 18 18 18 16 17 17 18 19
4 1 7 8 5 3 3 5 4 5 9 9 9 6 12 10 9 9 10 10 10 10 10 12 14 14 14 15 16 17 16 17 17 19 19 19 19 18 16 16 16 15 15 18
4 4 7 6 4 2 3 5 3 1 4 9 10 4 5 7 8 8 9 10 10 11 11 12 13 14 15 15 16 15 15 15 15 15 15 15 15 15 15 14 13 12 13 15
3 2 5 3 2 4 6 5 5 6 5 4 5 7 6 4 6 6 7 11 9 11 12 13 13 13 15 15 14 13 14 12 14 14 13 14 14 13 12 11 12 12 12 12
3 3 4 3 5 5 8 9 9 10 11 13 12 10 8 6 5 7 8 10 10 10 11 13 14 13 14 15 14 13 13 14 14 12 13 11 14 13 13 13 12 12 12 11
5 5 5 6 9 10 9 11 10 11 10 10 10 9 7 7 7 8 9 9 9 10 11 13 14 14 15 15 15 15 15 16 15 16 13 12 14 14 13 13 12 13 12 12
5 4 6 7 7 7 8 10 10 10 10 8 9 8 8 7 8 8 9 9 9 10 12 12 13 13 14 14 14 13 14 14 13 13 13 13 11 11 11 12 12 12 12 12
5 6 7 4 7 10 11 12 11 10 9 9 9 8 8 8 7 7 8 8 8 9 10 11 11 12 13 14 14 13 13 12 13 11 12 11 10 9 10 11 13 11 11 10
2 12 2 12 11 11 12 11 10 11 10 8 8 9 8 8 7 7 7 7 8 9 9 10 11 11 12 13 13 13 11 10 10 9 9 10 9 8 13 11 16 19 19 14
4 11 8 14 12 10 12 11 10 10 10 10 9 8 8 8 8 7 7 8 8 8 9 9 10 11 12 13 13 12 10 11 9 9 9 9 9 9 9 9 9 13 18 19
13 15 13 16 9 12 13 12 12 11 10 10 10 8 8 8 7 7 7 7 7 8 8 8 8 9 10 11 10 10 9 10 8 8 8 8 8 8 8 9 10 10 13 15
13 2 10 13 17 15 14 13 13 11 11 10 8 8 8 8 7 6 6 5 5 7 8 8 8 9 10 10 9 9 8 8 8 7 7 7 7 7 7 8 8 9 9 11
9 12 15 15 15 16 15 13 12 12 10 10 9 8 8 7 6 6 6 6 5 6 7 6 6 8 9 10 10 7 7 8 9 7 7 7 6 7 7 8 8 8 8 10
14 13 14 14 14 14 13 10 10 11 11 9 9 8 8 7 6 5 4 3 4 4 4 5 5 6 7 8 9 6 6 7 8 6 6 7 7 7 7 7 7 7 7 6
9 9 10 12 13 13 11 9 9 11 10 10 9 8 6 5 4 4 3 2 1 1 2 3 4 5 5 7 8 6 6 7 7 6 7 7 7 7 7 8 7 7 8 6
8 10 10 11 12 11 11 10 10 10 9 9 9 8 6 6 5 4 3 1 3 4 3 2 5 5 5 6 8 5 6 7 7 6 7 8 7 7 7 7 8 8 7 7
9 9 10 11 11 11 11 10 11 10 9 8 7 8 7 5 4 2 4 5 4 3 1 3 4 4 4 3 7 5 6 6 6 6 5 7 7 8 7 8 8 7 8 7
10 9 10 11 10 8 9 10 10 10 9 8 8 7 6 6 5 4 5 6 4 5 5 4 5 4 3 5 6 5 5 6 6 6 6 6 7 7 7 7 7 7 7 7
9 10 10 10 9 9 9 9 9 9 9 8 5 5 5 5 5 6 8 7 0 6 4 4 4 1 4 5 5 5 6 6 6 6 6 6 6 7 7 7 8 7 7 7
8 9 10 10 10 10 9 8 8 9 8 7 7 7 6 4 5 5 5 8 6 5 6 5 1 4 5 6 6 6 7 7 7 6 6 6 7 7 7 7 7 7 7 6
9 9 10 9 10 10 10 8 8 7 5 6 5 5 6 5 5 6 6 3 5 5 7 5 4 7 6 6 6 7 7 8 7 7 7 7 7 7 7 7 7 7 7 7
9 9 10 10 10 8 9 10 8 7 7 6 7 7 9 6 5 5 3 5 6 7 8 7 8 8 6 7 7 7 8 8 8 9 9 8 8 7 7 7 7 7 7 8
10 8 8 9 7 7 7 9 7 7 7 6 6 5 5 4 4 5 5 5 7 8 8 7 6 6 7 8 8 8 8 9 9 9 9 8 9 8 8 8 8 8 8 8
7 7 7 7 5 6 7 7 6 6 6 5 4 4 4 3 3 4 3 5 4 5 6 6 7 7 7 7 7 8 8 9 9 8 8 9 8 8 9 9 8 8 7 7
Wind_Direction
138 107 51 10 14 26 74 27 357 116 97 58 38 32 27 10 8 13 16 16 14 11 11 13 13 15 21 19 18 23 26 29 28 33 34 30 30 28 31 33 29 23 21 24
186 198 99 31 21 59 84 92 98 116 97 83 73 46 32 23 16 16 14 17 15 15 17 16 10 8 18 19 21 24 27 26 23 25 29 35 37 38 35 34 29 30 28 19
154 177 188 160 8 49 72 47 136 111 108 134 98 64 36 23 25 22 16 13 15 16 14 12 11 16 19 23 25 28 29 27 23 23 25 28 31 33 36 34 32 33 26 22
150 185 196 114 116 86 77 60 79 106 141 134 113 96 59 33 22 24 20 17 16 15 13 12 11 18 20 22 28 29 29 27 24 24 26 25 29 29 32 32 33 32 29 26
250 91 108 162 173 208 318 82 40 148 163 156 162 175 72 34 31 28 23 25 22 25 27 15 18 21 26 26 26 30 25 24 21 23 22 22 24 22 25 30 26 29 28 24
196 223 211 91 144 233 297 152 35 83 157 182 190 241 68 27 24 32 26 31 27 28 30 34 21 22 28 27 25 21 25 21 24 24 25 21 19 19 20 21 25 24 24 23
192 233 115 73 183 176 242 96 109 83 94 128 108 52 99 71 51 35 28 36 30 38 34 26 22 34 27 27 29 25 17 30 24 25 23 22 20 21 19 17 21 19 19 20
204 209 189 45 170 251 111 124 118 95 91 98 109 116 102 82 68 70 49 39 34 37 36 32 28 25 30 24 21 27 29 25 29 28 26 23 23 17 18 14 21 17 15 16
351 37 90 59 89 118 124 125 121 113 108 111 115 113 111 97 72 56 51 45 35 35 36 34 30 24 25 16 10 17 24 22 21 21 27 22 20 21 17 14 17 14 12 11
190 117 114 104 99 105 114 120 119 119 120 128 117 109 101 84 72 62 50 41 33 36 35 32 27 25 22 12 8 16 24 22 16 24 12 22 32 20 25 16 13 12 7 6
84 132 130 132 119 117 115 115 114 109 112 114 121 112 106 95 82 67 57 47 37 34 32 29 24 24 19 11 9 13 19 19 11 16 15 17 36 34 31 36 24 14 8 2
113 160 247 153 143 136 132 128 123 123 122 119 123 123 122 109 93 77 62 47 43 36 30 26 24 24 15 9 10 10 16 9 18 10 11 13 12 14 77 47 32 27 21 13
134 143 124 137 142 144 137 138 137 134 130 129 125 124 115 103 84 84 71 55 42 34 26 22 23 21 10 3 10 10 7 2 1 7 7 9 8 7 0 10 23 31 21 18
125 119 123 148 150 144 136 131 130 124 128 131 129 128 122 112 113 86 67 53 38 33 26 19 23 23 3 359 8 6 357 15 356 1 4 360 1 2 358 357 354 358 13 8
154 149 151 140 140 140 139 143 142 140 139 136 135 132 128 118 103 86 66 53 53 36 29 14 17 14 360 356 353 2 358 8 344 355 4 351 354 355 356 353 353 353 355 2
143 127 139 149 148 150 153 156 151 149 147 145 138 128 116 109 113 104 72 43 31 35 18 6 6 1 352 353 344 356 357 14 345 346 353 352 352 351 349 351 348 353 1 3
149 155 158 157 161 164 165 159 153 151 147 145 134 135 138 132 129 118 96 74 88 36 359 7 354 355 346 357 335 354 349 351 342 348 352 350 344 347 344 343 346 345 354 38
186 163 174 166 164 163 159 152 146 149 150 141 141 141 144 148 119 134 129 81 74 245 357 358 323 346 353 346 341 343 349 345 346 351 342 352 345 337 338 335 340 342 343 359
158 153 158 163 166 162 157 153 150 140 133 138 149 154 139 136 141 145 157 240 257 268 88 328 337 329 358 359 336 346 348 345 344 348 350 335 338 337 335 334 336 336 337 338
144 144 150 149 151 155 147 140 140 139 137 137 134 144 148 151 149 150 207 250 299 337 315 296 300 308 328 341 320 344 349 341 342 343 357 332 341 330 330 332 328 330 331 333
144 142 138 140 134 122 134 146 139 145 148 162 167 157 156 140 158 185 215 250 148 195 234 251 268 313 304 334 300 343 338 333 331 332 332 331 326 328 327 329 325 324 327 329
149 147 144 140 142 135 141 147 140 140 159 160 129 141 146 177 187 219 249 274 105 180 248 255 259 163 313 303 304 312 319 323 320 320 321 321 320 318 322 323 322 320 319 322
149 150 147 151 154 146 140 144 148 157 163 163 167 177 194 224 210 226 252 184 229 204 242 254 227 236 251 264 289 298 297 304 302 306 303 302 306 309 312 313 320 313 313 315
148 153 149 141 133 144 155 159 165 162 168 169 183 197 213 219 234 233 263 217 233 235 244 272 235 236 248 279 287 291 293 292 297 295 294 293 283 296 296 303 301 307 305 300
153 147 147 155 162 171 162 159 163 168 174 196 202 203 220 238 254 297 277 269 247 231 251 234 228 238 247 272 288 297 295 295 296 297 296 291 290 290 293 297 297 295 305 299
162 168 169 180 181 166 164 167 182 177 183 193 205 208 217 227 242 253 259 256 263 247 252 267 253 245 261 273 279 292 298 300 297 293 287 289 285 289 292 295 293 292 292 294
167 163 160 173 181 173 171 179 179 179 191 204 227 176 213 215 224 262 271 278 261 262 267 270 272 261 271 285 288 295 300 303 305 302 299 295 294 294 298 298 293 294 292 288